Home   Weather   Acharnes   Past weeks

Flag for Greece Past Weather in Acharnes, Greece — Yesterday and Last 2 Weeks

Now
41 °F

Sunny.


Feels Like: 41 °F
Forecast: 40 / 63 °F
Wind: No wind

Location: Elefsis Airport

Current Time: Dec 9, 2016 at 9:48:42 am

Latest Report: Dec 9, 2016 at 8:50 am


Visibility: 10 mi

Pressure: 30.45 "Hg

Humidity: 76%

Dew Point: 34 °F

Location of AcharnesLocation

Past Weather in Acharnes — Graph

°F

Acharnes Temperature Yesterday

Maximum temperature yesterday: 52 °F (at 12:20 am)
Minimum temperature yesterday: 39 °F (at 11:20 pm)
Average temperature yesterday: 48 °F

High & Low Weather Summary for the Past Weeks

 TemperatureHumidityPressure
High66 °F (Nov 27, 9:50 am)94% (Nov 27, 1:20 am)30.66 "Hg (Nov 27, 1:20 am)
Low36 °F (Dec 9, 2:50 am)30% (Dec 1, 1:50 pm)29.74 "Hg (Nov 28, 5:20 pm)
Average53 °F68%30.16 "Hg
* Reported Nov 24 8:20 am — Dec 9 8:20 am, Acharnes, Weather by CustomWeather, © 2016

Note: Actual official high and low records may vary slightly from our data, if they occured in-between our weather recording intervals... More about our weather records

Advertising

Acharnes Weather History for the Previous 24 Hours

Scroll right to see more
 ConditionsComfort  
Time TempWeatherWind HumidityBarometerVisibility
8:20 am
Fri, Dec 9
36 °FSunny.5 mph87%30.45 "Hg10 mi
7:50 am36 °FPassing clouds.5 mph87%30.45 "HgN/A
7:20 am36 °FPassing clouds.No wind87%30.45 "HgN/A
6:50 am36 °FPassing clouds.No wind87%30.45 "HgN/A
6:20 am36 °FPassing clouds.No wind81%30.45 "HgN/A
5:20 am36 °FPassing clouds.No wind81%30.45 "HgN/A
4:50 am36 °FPassing clouds.No wind87%30.48 "HgN/A
4:20 am37 °FPassing clouds.No wind81%30.48 "HgN/A
3:50 am36 °FPassing clouds.3 mph87%30.48 "HgN/A
3:20 am36 °FPassing clouds.5 mph81%30.48 "HgN/A
2:50 am36 °FPassing clouds.3 mph81%30.51 "HgN/A
2:20 am39 °FPassing clouds.No wind75%30.51 "HgN/A
1:50 am39 °FPassing clouds.5 mph75%30.51 "HgN/A
1:20 am39 °FPassing clouds.6 mph75%30.51 "HgN/A
12:50 am39 °FPassing clouds.6 mph81%30.51 "HgN/A
12:20 am39 °FPassing clouds.3 mph81%30.54 "HgN/A
11:50 pm
Thu, Dec 8
39 °FPassing clouds.3 mph75%30.54 "HgN/A
11:20 pm39 °FPassing clouds.5 mph75%30.54 "HgN/A
10:50 pm43 °FPassing clouds.5 mph66%30.54 "HgN/A
10:20 pm43 °FPassing clouds.5 mph66%30.54 "HgN/A
9:50 pm43 °FPassing clouds.3 mph66%30.57 "HgN/A
9:20 pm43 °FPassing clouds.3 mph66%30.57 "HgN/A
8:50 pm43 °FPassing clouds.6 mph66%30.57 "HgN/A
8:20 pm45 °FPassing clouds.5 mph61%30.57 "HgN/A
7:50 pm46 °FPassing clouds.6 mph57%30.57 "HgN/A
7:20 pm46 °FPassing clouds.6 mph57%30.57 "HgN/A
6:50 pm46 °FPassing clouds.5 mph57%30.57 "HgN/A
6:20 pm46 °FPassing clouds.5 mph57%30.57 "HgN/A
5:50 pm46 °FPassing clouds.7 mph53%30.57 "HgN/A
5:20 pm46 °FPassing clouds.5 mph53%30.57 "HgN/A
4:50 pm48 °FPassing clouds.8 mph50%30.57 "HgN/A
4:20 pm50 °FPassing clouds.9 mph47%30.57 "HgN/A
3:50 pm50 °FPassing clouds.9 mph47%30.57 "HgN/A
3:20 pm52 °FPassing clouds.10 mph44%30.57 "HgN/A
2:50 pm52 °FScattered clouds.9 mph44%30.57 "HgN/A
2:20 pm52 °FScattered clouds.10 mph44%30.57 "HgN/A
1:50 pm52 °FScattered clouds.9 mph44%30.57 "HgN/A
1:20 pm52 °FScattered clouds.8 mph44%30.60 "HgN/A
12:50 pm52 °FScattered clouds.8 mph44%30.60 "HgN/A
12:20 pm52 °FScattered clouds.8 mph41%30.63 "HgN/A
11:50 am50 °FScattered clouds.7 mph47%30.63 "HgN/A
11:20 am50 °FScattered clouds.6 mph54%30.66 "HgN/A
10:50 am50 °FScattered clouds.3 mph54%30.66 "HgN/A
10:20 am48 °FScattered clouds.5 mph58%30.66 "HgN/A
9:50 am48 °FScattered clouds.7 mph58%30.66 "HgN/A
9:20 am48 °FScattered clouds.6 mph58%30.66 "HgN/A
Weather by CustomWeather, © 2016

See weather overviewHow to use our weather pages